When you browse on this site, cookies collect data to enhance your experience and personalize the content and advertising you see.
Visit our Privacy Policy to learn more. By continuing to use the site, you agree to this use of cookies and data.
  • In Hungary
  • List of Countries
  • For 7 days
  • Water Temperature
  • Satellite Maps
  • Weather Map
  • News
  • Weather Widgets
  • user-avatar
    Login

    Hourly Weather Carei

    Today, 23 March, Saturday

    Time Temperature Precipitation Wind Pressure Humidity
    00:00 +8°C° 0 mm 3 mps 760 mmHg 86%
    01:00 +7°C° 0 mm 3 mps 760 mmHg 88%
    02:00 +7°C° 0 mm 3 mps 760 mmHg 89%
    03:00 +6°C° 0 mm 2 mps 760 mmHg 90%
    04:00 +6°C° 0 mm 2 mps 760 mmHg 90%
    05:00 +6°C° 0 mm 2 mps 759 mmHg 88%
    06:00 +6°C° 0 mm 2 mps 759 mmHg 85%
    07:00 +7°C° 0 mm 3 mps 759 mmHg 81%
    08:00 +8°C° 0 mm 3 mps 759 mmHg 71%
    09:00 +10°C° 0 mm 3 mps 759 mmHg 61%
    10:00 +12°C° 0 mm 3 mps 759 mmHg 51%
    11:00 +13°C° 0 mm 3 mps 758 mmHg 45%
    12:00 +14°C° 0 mm 3 mps 758 mmHg 38%
    13:00 +16°C° 0 mm 3 mps 758 mmHg 32%
    14:00 +16°C° 0 mm 3 mps 758 mmHg 32%
    15:00 +16°C° 0 mm 3 mps 757 mmHg 32%
    16:00 +16°C° 0 mm 3 mps 757 mmHg 33%
    17:00 +14°C° 0 mm 2 mps 757 mmHg 36%
    18:00 +13°C° 0 mm 2 mps 757 mmHg 39%
    19:00 +10°C° 0 mm 2 mps 757 mmHg 42%
    20:00 +11°C° 0 mm 1 mps 757 mmHg 43%
    21:00 +10°C° 0 mm 1 mps 758 mmHg 43%
    22:00 +9°C° 0 mm 1 mps 758 mmHg 44%
    23:00 +8°C° 0 mm 0 mps 758 mmHg 45%

    Tomorrow, 24 March, Sunday

    Time Temperature Precipitation Wind Pressure Humidity
    00:00 +7°C° 0 mm 0 mps 757 mmHg 46%
    01:00 +7°C° 0 mm 0 mps 757 mmHg 47%
    02:00 +6°C° 0 mm 0 mps 757 mmHg 48%
    03:00 +6°C° 0 mm 0 mps 757 mmHg 48%
    04:00 +6°C° 0 mm 0 mps 756 mmHg 49%
    05:00 +7°C° 0 mm 0 mps 756 mmHg 49%
    06:00 +7°C° 0 mm 0 mps 756 mmHg 49%
    07:00 +8°C° 0 mm 0 mps 756 mmHg 49%
    08:00 +11°C° 0 mm 1 mps 756 mmHg 45%
    09:00 +13°C° 0 mm 1 mps 756 mmHg 42%
    10:00 +14°C° 0 mm 1 mps 756 mmHg 38%
    11:00 +15°C° 0 mm 2 mps 755 mmHg 39%
    12:00 +16°C° 0 mm 2 mps 755 mmHg 40%
    13:00 +17°C° 0 mm 2 mps 755 mmHg 41%
    14:00 +17°C° 0 mm 2 mps 754 mmHg 44%
    15:00 +17°C° 0 mm 2 mps 754 mmHg 46%
    16:00 +17°C° 0 mm 2 mps 753 mmHg 49%
    17:00 +15°C° 0 mm 2 mps 753 mmHg 55%
    18:00 +14°C° 0 mm 2 mps 753 mmHg 61%
    19:00 +12°C° 0 mm 2 mps 753 mmHg 67%
    20:00 +12°C° 0 mm 1 mps 753 mmHg 69%
    21:00 +11°C° 0 mm 1 mps 753 mmHg 70%
    22:00 +11°C° 0 mm 1 mps 752 mmHg 72%
    23:00 +10°C° 0 mm 1 mps 752 mmHg 73%

    Day after tomorrow, 25 March, Monday

    Time Temperature Precipitation Wind Pressure Humidity
    00:00 +10°C° 0 mm 1 mps 751 mmHg 73%
    01:00 +10°C° 0 mm 1 mps 751 mmHg 74%
    02:00 +10°C° 0.2 mm 1 mps 750 mmHg 73%
    03:00 +9°C° 0.2 mm 2 mps 750 mmHg 73%
    04:00 +9°C° 0.2 mm 3 mps 749 mmHg 72%
    05:00 +9°C° 0.4 mm 3 mps 749 mmHg 74%
    06:00 +8°C° 0.4 mm 4 mps 749 mmHg 76%
    07:00 +8°C° 0.4 mm 4 mps 749 mmHg 78%
    08:00 +10°C° 0.1 mm 4 mps 748 mmHg 76%
    09:00 +12°C° 0.1 mm 3 mps 748 mmHg 74%
    10:00 +13°C° 0.1 mm 3 mps 748 mmHg 72%
    11:00 +13°C° 0.1 mm 3 mps 748 mmHg 68%
    12:00 +14°C° 0.1 mm 3 mps 747 mmHg 64%
    13:00 +16°C° 0.1 mm 3 mps 747 mmHg 59%
    14:00 +16°C° 0.4 mm 3 mps 746 mmHg 58%
    15:00 +16°C° 0.4 mm 3 mps 746 mmHg 56%
    16:00 +16°C° 0.4 mm 3 mps 746 mmHg 54%
    17:00 +14°C° 0.1 mm 4 mps 746 mmHg 55%
    18:00 +12°C° 0.1 mm 4 mps 747 mmHg 56%
    19:00 +11°C° 0.1 mm 4 mps 747 mmHg 57%
    20:00 +9°C° 0.1 mm 5 mps 748 mmHg 59%
    21:00 +8°C° 0.1 mm 6 mps 748 mmHg 62%
    22:00 +7°C° 0.1 mm 6 mps 749 mmHg 65%
    23:00 +6°C° 0 mm 7 mps 749 mmHg 65%

    26 March, Tuesday

    Time Temperature Precipitation Wind Pressure Humidity
    00:00 +5°C° 0 mm 7 mps 750 mmHg 66%
    01:00 +5°C° 0 mm 7 mps 750 mmHg 67%
    02:00 +4°C° 0 mm 7 mps 750 mmHg 67%
    03:00 +4°C° 0 mm 7 mps 751 mmHg 67%
    04:00 +3°C° 0 mm 6 mps 751 mmHg 67%
    05:00 +3°C° 0 mm 7 mps 752 mmHg 66%
    06:00 +3°C° 0 mm 7 mps 752 mmHg 65%
    07:00 +3°C° 0 mm 7 mps 753 mmHg 64%
    08:00 +4°C° 0 mm 7 mps 753 mmHg 61%
    09:00 +6°C° 0 mm 7 mps 754 mmHg 58%
    10:00 +8°C° 0 mm 7 mps 754 mmHg 55%
    11:00 +8°C° 0 mm 7 mps 754 mmHg 52%
    12:00 +9°C° 0 mm 7 mps 754 mmHg 49%
    13:00 +9°C° 0 mm 8 mps 754 mmHg 46%
    14:00 +9°C° 0 mm 7 mps 755 mmHg 45%
    15:00 +8°C° 0 mm 7 mps 755 mmHg 43%
    16:00 +8°C° 0 mm 7 mps 755 mmHg 42%
    17:00 +7°C° 0 mm 6 mps 756 mmHg 45%
    18:00 +5°C° 0 mm 5 mps 756 mmHg 47%
    19:00 +4°C° 0 mm 3 mps 757 mmHg 49%
    20:00 +4°C° 0 mm 3 mps 757 mmHg 50%
    21:00 +4°C° 0 mm 2 mps 758 mmHg 51%
    22:00 +4°C° 0 mm 2 mps 758 mmHg 51%
    23:00 +4°C° 0 mm 1 mps 758 mmHg 51%

    27 March, Wednesday

    Time Temperature Precipitation Wind Pressure Humidity
    00:00 +4°C° 0 mm 1 mps 758 mmHg 50%
    01:00 +4°C° 0 mm 1 mps 758 mmHg 50%
    02:00 +3°C° 0 mm 1 mps 758 mmHg 52%
    03:00 +2°C° 0 mm 2 mps 758 mmHg 55%
    04:00 +2°C° 0 mm 2 mps 758 mmHg 57%
    05:00 +2°C° 0 mm 3 mps 758 mmHg 58%
    06:00 +2°C° 0 mm 3 mps 759 mmHg 59%
    07:00 +3°C° 0 mm 3 mps 759 mmHg 59%
    08:00 +4°C° 0 mm 3 mps 759 mmHg 56%
    09:00 +6°C° 0 mm 4 mps 759 mmHg 52%
    10:00 +7°C° 0 mm 4 mps 759 mmHg 48%
    11:00 +7°C° 0 mm 4 mps 759 mmHg 46%
    12:00 +8°C° 0 mm 4 mps 759 mmHg 44%
    13:00 +10°C° 0 mm 4 mps 759 mmHg 43%
    14:00 +8°C° 0 mm 4 mps 759 mmHg 43%
    15:00 +8°C° 0 mm 4 mps 759 mmHg 43%
    16:00 +9°C° 0 mm 3 mps 759 mmHg 43%
    17:00 +8°C° 0 mm 3 mps 760 mmHg 47%
    18:00 +7°C° 0 mm 2 mps 760 mmHg 50%
    19:00 +7°C° 0 mm 1 mps 761 mmHg 54%
    20:00 +6°C° 0 mm 1 mps 761 mmHg 56%
    21:00 +6°C° 0 mm 1 mps 761 mmHg 57%
    22:00 +5°C° 0 mm 1 mps 761 mmHg 59%
    23:00 +5°C° 0 mm 1 mps 761 mmHg 60%

    28 March, Thursday

    Time Temperature Precipitation Wind Pressure Humidity
    00:00 +5°C° 0 mm 1 mps 762 mmHg 61%
    01:00 +4°C° 0 mm 1 mps 762 mmHg 62%
    02:00 +4°C° 0 mm 1 mps 762 mmHg 63%
    03:00 +3°C° 0 mm 1 mps 762 mmHg 64%
    04:00 +3°C° 0 mm 1 mps 762 mmHg 65%
    05:00 +4°C° 0 mm 1 mps 762 mmHg 64%
    06:00 +4°C° 0 mm 1 mps 763 mmHg 62%
    07:00 +5°C° 0 mm 1 mps 763 mmHg 61%
    08:00 +6°C° 0 mm 1 mps 763 mmHg 57%
    09:00 +7°C° 0 mm 2 mps 763 mmHg 53%
    10:00 +9°C° 0 mm 2 mps 763 mmHg 49%
    11:00 +10°C° 0 mm 2 mps 763 mmHg 46%
    12:00 +10°C° 0 mm 2 mps 762 mmHg 44%
    13:00 +12°C° 0 mm 2 mps 762 mmHg 41%
    14:00 +12°C° 0 mm 2 mps 762 mmHg 42%
    15:00 +13°C° 0 mm 2 mps 762 mmHg 42%
    16:00 +13°C° 0 mm 2 mps 762 mmHg 43%
    17:00 +10°C° 0 mm 2 mps 762 mmHg 49%
    18:00 +10°C° 0 mm 1 mps 762 mmHg 54%
    19:00 +8°C° 0 mm 1 mps 762 mmHg 60%
    20:00 +8°C° 0 mm 1 mps 763 mmHg 63%
    21:00 +7°C° 0 mm 1 mps 763 mmHg 66%
    22:00 +7°C° 0 mm 1 mps 763 mmHg 69%
    23:00 +6°C° 0 mm 1 mps 763 mmHg 71%
    Show more